Regional Weather Roundup
Issued by NWS Charleston, WV

Current Version | Previous Version | Text Only | Print | Product List | Glossary On
Versions: 1 2 3 4 5 6 7 8 9 10 11 12 13 14 15 16 17 18 19 20 21 22 23 24 25 26 27 28 29 30 31 32 33 34 35 36 37 38 39 40 41 42 43 44 45 46 47 48 49 50
000
ASUS41 KRLX 260710
RWRRLX
West Virginia Regional Weather Roundup
National Weather Service Charleston WV
300 AM EDT TUE SEP 26 2017

Note: "fair" indicates few or no clouds below 12,000 feet with no
significant weather and/or obstructions to visibility.

WVZ003-260800-
Northern Panhandle of West Virginia

CITY           SKY/WX    TMP DP  RH WIND       PRES   REMARKS
WHEELING       MOCLDY    66  62  87 E6        30.04R
$$

WVZ009-260800-
Northwest West Virginia

CITY           SKY/WX    TMP DP  RH WIND       PRES   REMARKS
PARKERSBURG    PTCLDY    65  63  93 CALM      30.04S
$$

WVZ006-260800-
Western West Virginia

CITY           SKY/WX    TMP DP  RH WIND       PRES   REMARKS
HUNTINGTON     CLEAR     64  62  93 CALM      30.01S
$$

WVZ015-260800-
West Central West Virginia

CITY           SKY/WX    TMP DP  RH WIND       PRES   REMARKS
CHARLESTON     PTCLDY    64  61  90 CALM      30.01S
$$

WVZ022-031-260800-
North Central West Virginia

CITY           SKY/WX    TMP DP  RH WIND       PRES   REMARKS
CLARKSBURG     MOCLDY    64  62  93 NE3       30.04S
MORGANTOWN     PTCLDY    67  65  93 CALM      30.05S
$$

WVZ025-035-042-045-260800-
Southern West Virginia

CITY           SKY/WX    TMP DP  RH WIND       PRES   REMARKS
BECKLEY        CLEAR     61  59  93 CALM      30.08F
LOGAN            N/A     66  63  88 CALM      30.03F
BLUEFIELD      PTCLDY    61  58  90 CALM      30.10F
LEWISBURG      PTCLDY    59  58  97 NE3       30.09S FOG
$$

WVZ047-260800-
Northern Mountains of West Virginia

CITY           SKY/WX    TMP DP  RH WIND       PRES   REMARKS
ELKINS         FOG       59  57  93 CALM      30.09S VSB 1/2
$$

WVZ052-260800-
Eastern Panhandle of West Virginia

CITY           SKY/WX    TMP DP  RH WIND       PRES   REMARKS
MARTINSBURG    CLEAR     69  66  90 CALM      30.01S
PETERSBURG       N/A     64  63  98 CALM      30.04F FOG
$$



USA.gov is the U.S. government's official web portal to all federal, state and local government web resources and services.